,,Stat6,,Stat2,,Stat8,,Stat9,,Stat10,,Wind1,,Wind1,
time,status,PA1M_AVG,status,PR1M_SUM,status,RH1M_AVG,status,SR1M_AVG,status,TA1M_AVG,status,W1dAve1m,status,W1sAve1m,
2004-01-27, 00:00:00,VALID,917.284,VALID,0,VALID,89.2717,VALID,0,VALID,20.3397,VALID,164,VALID,1.64672,
2004-01-27, 00:01:00,VALID,917.277,VALID,0,VALID,89.2209,VALID,-0.0169808,VALID,20.3486,VALID,168,VALID,1.2885,
2004-01-27, 00:02:00,VALID,917.262,VALID,0,VALID,89.2794,VALID,-0.0169808,VALID,20.3586,VALID,135,VALID,1.45071,
2004-01-27, 00:03:00,VALID,917.261,VALID,0,VALID,89.3913,VALID,0,VALID,20.3325,VALID,136,VALID,1.52507,
2004-01-27, 00:04:00,VALID,917.259,VALID,0,VALID,89.526,VALID,-0.0169808,VALID,20.3071,VALID,122,VALID,1.33743,
2004-01-27, 00:05:00,VALID,917.264,VALID,0,VALID,89.6825,VALID,0,VALID,20.2709,VALID,122,VALID,1.21007,
2004-01-27, 00:06:00,VALID,917.263,VALID,0,VALID,89.7562,VALID,0,VALID,20.242,VALID,75,VALID,1.11965,
2004-01-27, 00:07:00,VALID,917.274,VALID,0,VALID,89.8643,VALID,0,VALID,20.2222,VALID,103,VALID,1.23516,
2004-01-27, 00:08:00,VALID,917.273,VALID,0,VALID,89.8427,VALID,-0.0169808,VALID,20.2028,VALID,109,VALID,1.06603,
2004-01-27, 00:09:00,VALID,917.28,VALID,0,VALID,89.8923,VALID,0,VALID,20.2033,VALID,78,VALID,0.76875,
2004-01-27, 00:10:00,VALID,917.27,VALID,0,VALID,89.9253,VALID,0.0169808,VALID,20.2065,VALID,54,VALID,0.921875,
2004-01-27, 00:11:00,VALID,917.27,VALID,0,VALID,89.9279,VALID,0,VALID,20.203,VALID,77,VALID,0.874306,
2004-01-27, 00:12:00,VALID,917.259,VALID,0,VALID,90.0779,VALID,0,VALID,20.1834,VALID,116,VALID,1.34084,
2004-01-27, 00:13:00,VALID,917.261,VALID,0,VALID,90.3068,VALID,-0.0679233,VALID,20.1588,VALID,78,VALID,0.704055,
2004-01-27, 00:14:00,VALID,917.247,VALID,0,VALID,90.5281,VALID,-0.0679233,VALID,20.1206,VALID,101,VALID,1.14844,
2004-01-27, 00:15:00,VALID,917.223,VALID,0,VALID,90.6845,VALID,-0.101885,VALID,20.0781,VALID,135,VALID,0.912791,
2004-01-27, 00:16:00,VALID,917.198,VALID,0,VALID,90.8638,VALID,-0.101885,VALID,20.0624,VALID,116,VALID,1.02362,
2004-01-27, 00:17:00,VALID,917.17,VALID,0,VALID,91.0571,VALID,-0.0849042,VALID,20.0307,VALID,123,VALID,0.865327,
2004-01-27, 00:18:00,VALID,917.141,VALID,0,VALID,91.1677,VALID,-0.101885,VALID,20.0043,VALID,132,VALID,1.29451,
2004-01-27, 00:19:00,VALID,917.116,VALID,0,VALID,91.2529,VALID,-0.118866,VALID,19.9852,VALID,134,VALID,1.35689,
2004-01-27, 00:20:00,VALID,917.104,VALID,0,VALID,91.272,VALID,-0.101885,VALID,19.9887,VALID,122,VALID,1.26376,
2004-01-27, 00:21:00,VALID,917.121,VALID,0,VALID,91.3241,VALID,-0.101885,VALID,19.9521,VALID,97,VALID,0.707465,
2004-01-27, 00:22:00,VALID,917.099,VALID,0,VALID,91.5136,VALID,-0.0849042,VALID,19.93,VALID,124,VALID,0.832986,
2004-01-27, 00:23:00,VALID,917.098,VALID,0,VALID,91.5975,VALID,-0.101885,VALID,19.9268,VALID,103,VALID,0.994141,
2004-01-27, 00:24:00,VALID,917.102,VALID,0,VALID,91.7539,VALID,-0.0849042,VALID,19.901,VALID,125,VALID,0.694957,
2004-01-27, 00:25:00,VALID,917.077,VALID,0,VALID,91.8493,VALID,-0.0849042,VALID,19.8878,VALID,123,VALID,0.867551,
2004-01-27, 00:26:00,VALID,917.055,VALID,0,VALID,91.9065,VALID,-0.0849042,VALID,19.8813,VALID,135,VALID,0.894354,
2004-01-27, 00:27:00,VALID,917.04,VALID,0,VALID,91.8836,VALID,-0.0849042,VALID,19.8972,VALID,136,VALID,0.477834,
2004-01-27, 00:28:00,VALID,917.014,VALID,0,VALID,91.8416,VALID,-0.101885,VALID,19.9106,VALID,104,VALID,0.322359,
2004-01-27, 00:29:00,VALID,916.993,VALID,0,VALID,91.7806,VALID,-0.0849042,VALID,19.9236,VALID,158,VALID,1.17205,
2004-01-27, 00:30:00,VALID,916.975,VALID,0,VALID,91.7692,VALID,-0.101885,VALID,19.9238,VALID,188,VALID,0.716146,
2004-01-27, 00:31:00,VALID,916.961,VALID,0,VALID,91.7564,VALID,-0.101885,VALID,19.9265,VALID,172,VALID,0.472656,
2004-01-27, 00:32:00,VALID,916.936,VALID,0,VALID,91.8137,VALID,-0.0849042,VALID,19.9462,VALID,211,VALID,0.201308,
2004-01-27, 00:33:00,VALID,916.926,VALID,0,VALID,91.7196,VALID,-0.101885,VALID,19.9623,VALID,200,VALID,0.390997,
2004-01-27, 00:34:00,VALID,916.91,VALID,0,VALID,91.6471,VALID,-0.101885,VALID,19.9554,VALID,147,VALID,0.549733,
2004-01-27, 00:35:00,VALID,916.899,VALID,0,VALID,91.5581,VALID,-0.0849042,VALID,19.975,VALID,177,VALID,0.532292,
2004-01-27, 00:36:00,VALID,916.891,VALID,0,VALID,91.553,VALID,-0.101885,VALID,19.9814,VALID,170,VALID,0.40625,
2004-01-27, 00:37:00,VALID,916.889,VALID,0,VALID,91.5708,VALID,-0.101885,VALID,19.975,VALID,138,VALID,0.413175,
2004-01-27, 00:38:00,VALID,916.892,VALID,0,VALID,91.6331,VALID,-0.101885,VALID,19.9685,VALID,149,VALID,0.894886,
2004-01-27, 00:39:00,VALID,916.892,VALID,0,VALID,91.7234,VALID,-0.118866,VALID,19.9499,VALID,100,VALID,0.965402,
2004-01-27, 00:40:00,VALID,916.894,VALID,0,VALID,91.9446,VALID,-0.101885,VALID,19.9007,VALID,110,VALID,1.13192,
2004-01-27, 00:41:00,VALID,916.887,VALID,0,VALID,92.2842,VALID,-0.0849042,VALID,19.8498,VALID,124,VALID,0.920351,
2004-01-27, 00:42:00,VALID,916.884,VALID,0,VALID,92.4368,VALID,-0.101885,VALID,19.8369,VALID,126,VALID,1.56529,
2004-01-27, 00:43:00,VALID,916.879,VALID,0,VALID,92.3312,VALID,-0.101885,VALID,19.8396,VALID,97,VALID,1.05124,
2004-01-27, 00:44:00,VALID,916.865,VALID,0,VALID,92.4088,VALID,-0.101885,VALID,19.8557,VALID,144,VALID,0.679878,
2004-01-27, 00:45:00,VALID,916.834,VALID,0,VALID,92.4813,VALID,-0.101885,VALID,19.8458,VALID,112,VALID,0.455487,
2004-01-27, 00:46:00,VALID,916.827,VALID,0,VALID,92.5448,VALID,-0.101885,VALID,19.8525,VALID,125,VALID,1.41499,
2004-01-27, 00:47:00,VALID,916.814,VALID,0,VALID,92.5474,VALID,-0.101885,VALID,19.8458,VALID,128,VALID,1.41477,
2004-01-27, 00:48:00,VALID,916.792,VALID,0,VALID,92.5347,VALID,-0.101885,VALID,19.8555,VALID,122,VALID,1.14827,
2004-01-27, 00:49:00,VALID,916.777,VALID,0,VALID,92.5054,VALID,-0.101885,VALID,19.8716,VALID,127,VALID,1.7207,
2004-01-27, 00:50:00,VALID,916.777,VALID,0,VALID,92.4406,VALID,-0.0849042,VALID,19.8749,VALID,112,VALID,1.48775,
2004-01-27, 00:51:00,VALID,916.782,VALID,0,VALID,92.508,VALID,-0.101885,VALID,19.8816,VALID,87,VALID,1.31045,
2004-01-27, 00:52:00,VALID,916.782,VALID,0,VALID,92.6567,VALID,-0.0849042,VALID,19.8555,VALID,102,VALID,1.19757,
2004-01-27, 00:53:00,VALID,916.776,VALID,0,VALID,92.728,VALID,-0.0509425,VALID,19.8493,VALID,111,VALID,1.66097,
2004-01-27, 00:54:00,VALID,916.757,VALID,0,VALID,92.7534,VALID,-0.0849042,VALID,19.8329,VALID,113,VALID,1.92243,
2004-01-27, 00:55:00,VALID,916.758,VALID,0,VALID,92.8106,VALID,-0.0849042,VALID,19.8297,VALID,122,VALID,1.34319,
2004-01-27, 00:56:00,VALID,916.736,VALID,0,VALID,92.6695,VALID,-0.0679233,VALID,19.8393,VALID,128,VALID,1.76804,
2004-01-27, 00:57:00,VALID,916.718,VALID,0,VALID,92.4889,VALID,-0.118866,VALID,19.862,VALID,127,VALID,1.54492,
2004-01-27, 00:58:00,VALID,916.69,VALID,0,VALID,92.2422,VALID,-0.0849042,VALID,19.8937,VALID,133,VALID,1.88377,
2004-01-27, 00:59:00,VALID,916.685,VALID,0,VALID,91.9663,VALID,-0.101885,VALID,19.9395,VALID,131,VALID,1.72865,
2004-01-27, 01:00:00,VALID,916.681,VALID,0,VALID,91.5721,VALID,-0.101885,VALID,19.9847,VALID,141,VALID,1.88969,
2004-01-27, 01:01:00,VALID,916.683,VALID,0,VALID,91.4614,VALID,-0.0849042,VALID,20.017,VALID,128,VALID,1.51705,
2004-01-27, 01:02:00,VALID,916.675,VALID,0,VALID,91.492,VALID,-0.0679233,VALID,20.0398,VALID,142,VALID,1.40044,
2004-01-27, 01:03:00,VALID,916.668,VALID,0,VALID,91.5072,VALID,-0.101885,VALID,20.0369,VALID,122,VALID,1.74562,
2004-01-27, 01:04:00,VALID,916.661,VALID,0,VALID,91.4958,VALID,-0.101885,VALID,20.0237,VALID,145,VALID,2.01953,
2004-01-27, 01:05:00,VALID,916.641,VALID,0,VALID,91.492,VALID,-0.0849042,VALID,20.0175,VALID,138,VALID,1.96056,
2004-01-27, 01:06:00,VALID,916.616,VALID,0,VALID,91.7018,VALID,-0.0679233,VALID,20.0011,VALID,139,VALID,1.35508,
2004-01-27, 01:07:00,VALID,916.59,VALID,0,VALID,91.7908,VALID,-0.101885,VALID,19.9745,VALID,138,VALID,1.33129,
2004-01-27, 01:08:00,VALID,916.549,VALID,0,VALID,91.9472,VALID,-0.0509425,VALID,19.9554,VALID,137,VALID,1.54102,
2004-01-27, 01:09:00,VALID,916.511,VALID,0,VALID,92.068,VALID,-0.0679233,VALID,19.9357,VALID,134,VALID,1.7125,
2004-01-27, 01:10:00,VALID,916.457,VALID,0,VALID,92.007,VALID,-0.0679233,VALID,19.926,VALID,136,VALID,1.95694,
2004-01-27, 01:11:00,VALID,916.434,VALID,0,VALID,92.007,VALID,-0.0849042,VALID,19.9298,VALID,121,VALID,1.67431,
2004-01-27, 01:12:00,VALID,916.398,VALID,0,VALID,91.979,VALID,-0.0849042,VALID,19.933,VALID,126,VALID,2.04961,
2004-01-27, 01:13:00,VALID,916.381,VALID,0,VALID,91.7742,VALID,-0.0849042,VALID,19.9231,VALID,125,VALID,1.9581,
2004-01-27, 01:14:00,VALID,916.362,VALID,0,VALID,91.7539,VALID,-0.0849042,VALID,19.9457,VALID,99,VALID,1.46257,
2004-01-27, 01:15:00,VALID,916.346,VALID,0,VALID,91.8963,VALID,-0.0679233,VALID,19.9588,VALID,98,VALID,1.54911,
2004-01-27, 01:16:00,VALID,916.341,VALID,0,VALID,91.7526,VALID,-0.101885,VALID,19.9489,VALID,120,VALID,1.61138,
2004-01-27, 01:17:00,VALID,916.331,VALID,0,VALID,91.4424,VALID,-0.101885,VALID,19.9586,VALID,129,VALID,1.97266,
2004-01-27, 01:18:00,VALID,916.319,VALID,0,VALID,91.2287,VALID,-0.101885,VALID,19.9944,VALID,126,VALID,1.48008,
2004-01-27, 01:19:00,VALID,916.312,VALID,0,VALID,91.1003,VALID,-0.0849042,VALID,20.02,VALID,122,VALID,1.75781,
2004-01-27, 01:20:00,VALID,916.306,VALID,0,VALID,90.9553,VALID,-0.0679233,VALID,20.0366,VALID,123,VALID,1.86257,
2004-01-27, 01:21:00,VALID,916.303,VALID,0,VALID,90.8155,VALID,-0.101885,VALID,20.0361,VALID,124,VALID,2.11755,
2004-01-27, 01:22:00,VALID,916.301,VALID,0,VALID,90.7023,VALID,-0.101885,VALID,20.059,VALID,118,VALID,1.86417,
2004-01-27, 01:23:00,VALID,916.296,VALID,0,VALID,90.5535,VALID,-0.135847,VALID,20.0681,VALID,124,VALID,2.18535,
2004-01-27, 01:24:00,VALID,916.296,VALID,0,VALID,90.4632,VALID,-0.101885,VALID,20.1047,VALID,120,VALID,1.81357,
2004-01-27, 01:25:00,VALID,916.317,VALID,0,VALID,90.5955,VALID,-0.101885,VALID,20.0975,VALID,107,VALID,1.42242,
2004-01-27, 01:26:00,VALID,916.314,VALID,0,VALID,90.7188,VALID,-0.0849042,VALID,20.0689,VALID,114,VALID,1.04179,
2004-01-27, 01:27:00,VALID,916.335,VALID,0,VALID,90.7913,VALID,-0.0679233,VALID,20.049,VALID,120,VALID,1.11592,
2004-01-27, 01:28:00,VALID,916.328,VALID,0,VALID,90.949,VALID,-0.0339617,VALID,20.0224,VALID,99,VALID,1.36973,
2004-01-27, 01:29:00,VALID,916.315,VALID,0,VALID,91.1753,VALID,0.0339617,VALID,19.9924,VALID,85,VALID,0.766319,
2004-01-27, 01:30:00,VALID,916.318,VALID,0,VALID,91.2961,VALID,0.0679233,VALID,19.9635,VALID,99,VALID,0.884448,
2004-01-27, 01:31:00,VALID,916.298,VALID,0,VALID,91.4017,VALID,0.0169808,VALID,19.964,VALID,69,VALID,1.03979,
2004-01-27, 01:32:00,VALID,916.285,VALID,0,VALID,91.3979,VALID,0,VALID,19.9412,VALID,113,VALID,0.748001,
2004-01-27, 01:33:00,VALID,916.286,VALID,0,VALID,91.1779,VALID,0,VALID,19.9511,VALID,103,VALID,1.36788,
2004-01-27, 01:34:00,VALID,916.279,VALID,0,VALID,91.1677,VALID,0,VALID,19.9735,VALID,54,VALID,0.729048,
2004-01-27, 01:35:00,VALID,916.28,VALID,0,VALID,91.188,VALID,0.0169808,VALID,19.9834,VALID,56,VALID,0.84032,
2004-01-27, 01:36:00,VALID,916.283,VALID,0,VALID,91.2224,VALID,0.0339617,VALID,19.9799,VALID,53,VALID,0.718572,
2004-01-27, 01:37:00,VALID,916.297,VALID,0,VALID,91.3037,VALID,0.0509425,VALID,19.9568,VALID,55,VALID,0.595846,
2004-01-27, 01:38:00,VALID,916.294,VALID,0,VALID,91.3406,VALID,0.0169808,VALID,19.9342,VALID,80,VALID,0.761009,
2004-01-27, 01:39:00,VALID,916.314,VALID,0,VALID,91.4462,VALID,0.0169808,VALID,19.9317,VALID,65,VALID,1.05362,
2004-01-27, 01:40:00,VALID,916.318,VALID,0,VALID,91.6077,VALID,0.0169808,VALID,19.889,VALID,80,VALID,0.918146,
2004-01-27, 01:41:00,VALID,916.339,VALID,0,VALID,91.6115,VALID,0.0169808,VALID,19.8731,VALID,84,VALID,0.822852,
2004-01-27, 01:42:00,VALID,916.34,VALID,0,VALID,91.5301,VALID,0.0339617,VALID,19.8893,VALID,84,VALID,0.826172,
2004-01-27, 01:43:00,VALID,916.338,VALID,0,VALID,91.4042,VALID,0.0509425,VALID,19.9059,VALID,86,VALID,0.945313,
2004-01-27, 01:44:00,VALID,916.33,VALID,0,VALID,91.2084,VALID,0.0679233,VALID,19.9211,VALID,89,VALID,1.14583,
2004-01-27, 01:45:00,VALID,916.32,VALID,0,VALID,90.9502,VALID,0.0679233,VALID,19.9601,VALID,94,VALID,1.41566,
2004-01-27, 01:46:00,VALID,916.321,VALID,0,VALID,90.7659,VALID,0.0509425,VALID,20.0088,VALID,116,VALID,1.03815,
2004-01-27, 01:47:00,VALID,916.319,VALID,0,VALID,90.7048,VALID,0.0679233,VALID,20.0376,VALID,120,VALID,1.55526,
2004-01-27, 01:48:00,VALID,916.298,VALID,0,VALID,90.5599,VALID,0.0849042,VALID,20.0637,VALID,120,VALID,1.55431,
2004-01-27, 01:49:00,VALID,916.281,VALID,0,VALID,90.5637,VALID,0.0169808,VALID,20.0868,VALID,114,VALID,1.52611,
2004-01-27, 01:50:00,VALID,916.255,VALID,0,VALID,90.5611,VALID,0.101885,VALID,20.0959,VALID,116,VALID,1.26639,
2004-01-27, 01:51:00,VALID,916.222,VALID,0,VALID,90.556,VALID,0.0849042,VALID,20.0952,VALID,126,VALID,1.42321,
2004-01-27, 01:52:00,VALID,916.205,VALID,0,VALID,90.5408,VALID,0.0849042,VALID,20.125,VALID,130,VALID,1.2326,
2004-01-27, 01:53:00,VALID,916.19,VALID,0,VALID,90.5421,VALID,0.0509425,VALID,20.1183,VALID,121,VALID,1.42116,
2004-01-27, 01:54:00,VALID,916.157,VALID,0,VALID,90.5917,VALID,0.0679233,VALID,20.125,VALID,117,VALID,1.0202,
2004-01-27, 01:55:00,VALID,916.12,VALID,0,VALID,90.551,VALID,0.0679233,VALID,20.1479,VALID,125,VALID,1.45403,
2004-01-27, 01:56:00,VALID,916.085,VALID,0,VALID,90.5789,VALID,0.0509425,VALID,20.1409,VALID,128,VALID,1.29488,
2004-01-27, 01:57:00,VALID,916.06,VALID,0,VALID,90.481,VALID,0.0339617,VALID,20.1509,VALID,142,VALID,1.39316,
2004-01-27, 01:58:00,VALID,916.04,VALID,0,VALID,90.4174,VALID,-0.0509425,VALID,20.1712,VALID,127,VALID,1.22778,
2004-01-27, 01:59:00,VALID,916.042,VALID,0,VALID,90.3399,VALID,-0.0509425,VALID,20.1747,VALID,127,VALID,1.53997,
2004-01-27, 02:00:00,VALID,916.038,VALID,0,VALID,90.4251,VALID,-0.0849042,VALID,20.1814,VALID,127,VALID,1.34793,
2004-01-27, 02:01:00,VALID,916.039,VALID,0,VALID,90.4721,VALID,-0.0339617,VALID,20.175,VALID,141,VALID,0.994792,
2004-01-27, 02:02:00,VALID,916.04,VALID,0,VALID,90.4963,VALID,-0.0339617,VALID,20.1618,VALID,133,VALID,1.40217,
2004-01-27, 02:03:00,VALID,916.05,VALID,0,VALID,90.6031,VALID,-0.0169808,VALID,20.1422,VALID,109,VALID,0.858422,
2004-01-27, 02:04:00,VALID,916.059,VALID,0,VALID,90.9121,VALID,-0.0169808,VALID,20.13,VALID,102,VALID,0.84593,
2004-01-27, 02:05:00,VALID,916.073,VALID,0,VALID,91.0405,VALID,-0.101885,VALID,20.0808,VALID,126,VALID,1.06021,
2004-01-27, 02:06:00,VALID,916.096,VALID,0,VALID,91.0901,VALID,-0.0849042,VALID,20.0746,VALID,121,VALID,0.719993,
2004-01-27, 02:07:00,VALID,916.105,VALID,0,VALID,91.3228,VALID,-0.0339617,VALID,20.0525,VALID,73,VALID,0.957227,
2004-01-27, 02:08:00,VALID,916.1,VALID,0,VALID,91.6611,VALID,-0.0509425,VALID,20.0105,VALID,107,VALID,0.827097,
2004-01-27, 02:09:00,VALID,916.103,VALID,0,VALID,91.7463,VALID,-0.0509425,VALID,19.9978,VALID,96,VALID,0.920015,
2004-01-27, 02:10:00,VALID,916.086,VALID,0,VALID,91.7717,VALID,-0.0169808,VALID,19.9946,VALID,114,VALID,0.958705,
2004-01-27, 02:11:00,VALID,916.104,VALID,0,VALID,91.6967,VALID,-0.0509425,VALID,19.9971,VALID,113,VALID,0.836664,
2004-01-27, 02:12:00,VALID,916.107,VALID,0,VALID,91.7272,VALID,-0.0849042,VALID,20.0041,VALID,92,VALID,0.824396,
2004-01-27, 02:13:00,VALID,916.097,VALID,0,VALID,91.7984,VALID,0.0169808,VALID,19.9899,VALID,89,VALID,0.940874,
2004-01-27, 02:14:00,VALID,916.102,VALID,0,VALID,91.792,VALID,0.0509425,VALID,19.9991,VALID,118,VALID,1.4388,
2004-01-27, 02:15:00,VALID,916.102,VALID,0,VALID,91.3673,VALID,0.0679233,VALID,20.0279,VALID,141,VALID,1.53943,
2004-01-27, 02:16:00,VALID,916.085,VALID,0,VALID,90.9096,VALID,0.0849042,VALID,20.1051,VALID,153,VALID,1.58501,
2004-01-27, 02:17:00,VALID,916.087,VALID,0,VALID,90.4263,VALID,0.0679233,VALID,20.1993,VALID,131,VALID,1.75449,
2004-01-27, 02:18:00,VALID,916.062,VALID,0,VALID,90.1097,VALID,0.0679233,VALID,20.286,VALID,120,VALID,1.55412,
2004-01-27, 02:19:00,VALID,916.053,VALID,0,VALID,90.0296,VALID,0.0849042,VALID,20.3213,VALID,135,VALID,1.67188,
2004-01-27, 02:20:00,VALID,916.046,VALID,0,VALID,89.6774,VALID,0.101885,VALID,20.3538,VALID,138,VALID,1.4391,
2004-01-27, 02:21:00,VALID,916.049,VALID,0,VALID,89.7193,VALID,0.0679233,VALID,20.399,VALID,104,VALID,1.17392,
2004-01-27, 02:22:00,VALID,916.056,VALID,0,VALID,89.8211,VALID,0.0679233,VALID,20.3963,VALID,109,VALID,1.36682,
2004-01-27, 02:23:00,VALID,916.051,VALID,0,VALID,89.8834,VALID,0.0679233,VALID,20.3831,VALID,114,VALID,1.21018,
2004-01-27, 02:24:00,VALID,916.036,VALID,0,VALID,89.863,VALID,0.0849042,VALID,20.3829,VALID,114,VALID,1.38372,
2004-01-27, 02:25:00,VALID,916.029,VALID,0,VALID,89.9126,VALID,0.0849042,VALID,20.3824,VALID,121,VALID,1.52288,
2004-01-27, 02:26:00,VALID,916.021,VALID,0,VALID,90.008,VALID,0.0849042,VALID,20.3824,VALID,111,VALID,1.62269,
2004-01-27, 02:27:00,VALID,916.005,VALID,0,VALID,90.0881,VALID,0.0849042,VALID,20.3829,VALID,117,VALID,1.29173,
2004-01-27, 02:28:00,VALID,916.001,VALID,0,VALID,90.0334,VALID,-0.0169808,VALID,20.3774,VALID,120,VALID,1.73686,
2004-01-27, 02:29:00,VALID,915.993,VALID,0,VALID,90.0894,VALID,-0.0509425,VALID,20.3849,VALID,117,VALID,1.42111,
2004-01-27, 02:30:00,VALID,915.983,VALID,0,VALID,90.158,VALID,-0.0169808,VALID,20.3809,VALID,120,VALID,1.65532,
2004-01-27, 02:31:00,VALID,915.963,VALID,0,VALID,90.2699,VALID,-0.0509425,VALID,20.3882,VALID,116,VALID,1.39826,
2004-01-27, 02:32:00,VALID,915.954,VALID,0,VALID,90.3132,VALID,-0.0169808,VALID,20.3782,VALID,116,VALID,1.28609,
2004-01-27, 02:33:00,VALID,915.94,VALID,0,VALID,90.3195,VALID,-0.0509425,VALID,20.365,VALID,123,VALID,1.40606,
2004-01-27, 02:34:00,VALID,915.929,VALID,0,VALID,90.4632,VALID,-0.0509425,VALID,20.3683,VALID,86,VALID,0.586957,
2004-01-27, 02:35:00,VALID,915.904,VALID,0,VALID,90.5001,VALID,-0.0509425,VALID,20.3715,VALID,114,VALID,0.798295,
2004-01-27, 02:36:00,VALID,915.895,VALID,0,VALID,90.5446,VALID,-0.0339617,VALID,20.3578,VALID,103,VALID,1.05195,
2004-01-27, 02:37:00,VALID,915.883,VALID,0,VALID,90.598,VALID,-0.0509425,VALID,20.3486,VALID,88,VALID,1.03021,
2004-01-27, 02:38:00,VALID,915.858,VALID,0,VALID,90.6934,VALID,0,VALID,20.3389,VALID,73,VALID,1.008,
2004-01-27, 02:39:00,VALID,915.848,VALID,0,VALID,90.6768,VALID,-0.0679233,VALID,20.333,VALID,95,VALID,1.21633,
2004-01-27, 02:40:00,VALID,915.828,VALID,0,VALID,90.8409,VALID,-0.0849042,VALID,20.3265,VALID,99,VALID,0.977344,
2004-01-27, 02:41:00,VALID,915.827,VALID,0,VALID,90.9668,VALID,-0.0679233,VALID,20.3168,VALID,110,VALID,1.16897,
2004-01-27, 02:42:00,VALID,915.82,VALID,0,VALID,91.1283,VALID,-0.0509425,VALID,20.3009,VALID,107,VALID,1.55196,
2004-01-27, 02:43:00,VALID,915.833,VALID,0,VALID,91.3254,VALID,-0.0169808,VALID,20.2709,VALID,105,VALID,1.37137,
2004-01-27, 02:44:00,VALID,915.838,VALID,0,VALID,91.3839,VALID,-0.0169808,VALID,20.248,VALID,112,VALID,1.67168,
2004-01-27, 02:45:00,VALID,915.841,VALID,0,VALID,91.6077,VALID,0,VALID,20.241,VALID,113,VALID,1.17969,
2004-01-27, 02:46:00,VALID,915.845,VALID,0,VALID,91.478,VALID,0,VALID,20.2485,VALID,123,VALID,1.68626,
2004-01-27, 02:47:00,VALID,915.845,VALID,0,VALID,91.408,VALID,0,VALID,20.2415,VALID,124,VALID,1.85849,
2004-01-27, 02:48:01,VALID,915.822,VALID,0,VALID,91.3216,VALID,-0.0169808,VALID,20.2537,VALID,118,VALID,2.26544,
2004-01-27, 02:49:00,VALID,915.835,VALID,0,VALID,91.2656,VALID,0,VALID,20.2701,VALID,118,VALID,1.72923,
2004-01-27, 02:50:00,VALID,915.828,VALID,0,VALID,91.1219,VALID,0.0169808,VALID,20.2902,VALID,116,VALID,1.56917,
2004-01-27, 02:51:00,VALID,915.823,VALID,0,VALID,91.2122,VALID,0,VALID,20.3096,VALID,119,VALID,1.52539,
2004-01-27, 02:52:00,VALID,915.824,VALID,0,VALID,91.202,VALID,0,VALID,20.3056,VALID,108,VALID,1.39408,
2004-01-27, 02:53:00,VALID,915.82,VALID,0,VALID,91.0977,VALID,0,VALID,20.319,VALID,121,VALID,1.61319,
2004-01-27, 02:54:00,VALID,915.815,VALID,0,VALID,90.9935,VALID,0.0169808,VALID,20.3218,VALID,119,VALID,1.67914,
2004-01-27, 02:55:01,VALID,915.802,VALID,0,VALID,90.9413,VALID,0,VALID,20.328,VALID,120,VALID,1.56831,
2004-01-27, 02:56:00,VALID,915.786,VALID,0,VALID,90.6781,VALID,0,VALID,20.3476,VALID,117,VALID,2.47227,
2004-01-27, 02:57:00,VALID,915.779,VALID,0,VALID,90.7226,VALID,0,VALID,20.3764,VALID,118,VALID,1.72561,
2004-01-27, 02:58:00,VALID,915.777,VALID,0,VALID,90.7875,VALID,0.0169808,VALID,20.3834,VALID,123,VALID,1.45215,
2004-01-27, 02:59:00,VALID,915.751,VALID,0,VALID,90.7798,VALID,0.0169808,VALID,20.3737,VALID,115,VALID,1.57831,
2004-01-27, 03:00:00,VALID,915.739,VALID,0,VALID,90.7671,VALID,0.0169808,VALID,20.3737,VALID,109,VALID,1.66654,
2004-01-27, 03:01:01,VALID,915.73,VALID,0,VALID,90.8956,VALID,0.0169808,VALID,20.3802,VALID,107,VALID,1.62173,
2004-01-27, 03:02:00,VALID,915.72,VALID,0,VALID,90.9948,VALID,0.0169808,VALID,20.3603,VALID,81,VALID,1.28597,
2004-01-27, 03:03:01,VALID,915.696,VALID,0,VALID,90.8943,VALID,0.0169808,VALID,20.3503,VALID,111,VALID,1.0645,
2004-01-27, 03:04:01,VALID,915.678,VALID,0,VALID,90.9096,VALID,0.0169808,VALID,20.3672,VALID,84,VALID,1.48739,
2004-01-27, 03:05:00,VALID,915.652,VALID,0,VALID,90.762,VALID,0,VALID,20.3675,VALID,77,VALID,2.12845,
2004-01-27, 03:06:01,VALID,915.643,VALID,0,VALID,90.584,VALID,0,VALID,20.3998,VALID,100,VALID,1.75594,
2004-01-27, 03:07:01,VALID,915.606,VALID,0,VALID,90.5827,VALID,0.0169808,VALID,20.4291,VALID,123,VALID,1.68026,
2004-01-27, 03:08:00,VALID,915.602,VALID,0,VALID,90.6654,VALID,0.0169808,VALID,20.4085,VALID,120,VALID,1.41084,
2004-01-27, 03:09:00,VALID,915.586,VALID,0,VALID,90.6082,VALID,0,VALID,20.4028,VALID,112,VALID,1.856,
2004-01-27, 03:10:00,VALID,915.574,VALID,0,VALID,90.8714,VALID,0,VALID,20.4055,VALID,99,VALID,1.25018,
2004-01-27, 03:11:01,VALID,915.589,VALID,0,VALID,90.729,VALID,0,VALID,20.4003,VALID,122,VALID,2.32535,
2004-01-27, 03:12:00,VALID,915.602,VALID,0,VALID,90.8282,VALID,0,VALID,20.3998,VALID,125,VALID,1.44196,
2004-01-27, 03:13:01,VALID,915.597,VALID,0,VALID,90.7163,VALID,0,VALID,20.3995,VALID,143,VALID,0.962358,
2004-01-27, 03:14:00,VALID,915.6,VALID,0,VALID,90.6552,VALID,0,VALID,20.413,VALID,108,VALID,1.75191,
2004-01-27, 03:15:00,VALID,915.599,VALID,0,VALID,90.6412,VALID,0,VALID,20.4224,VALID,87,VALID,1.50654,
2004-01-27, 03:16:00,VALID,915.599,VALID,0,VALID,90.8498,VALID,0,VALID,20.4192,VALID,102,VALID,1.48224,
2004-01-27, 03:17:01,VALID,915.595,VALID,0,VALID,90.8867,VALID,0.0169808,VALID,20.406,VALID,128,VALID,1.36204,
2004-01-27, 03:18:00,VALID,915.584,VALID,0,VALID,90.7773,VALID,0.0169808,VALID,20.3931,VALID,130,VALID,1.52697,
2004-01-27, 03:19:01,VALID,915.583,VALID,0,VALID,91.0482,VALID,0.0169808,VALID,20.3966,VALID,85,VALID,1.18274,
2004-01-27, 03:20:00,VALID,915.555,VALID,0,VALID,91.2516,VALID,0,VALID,20.374,VALID,100,VALID,1.46094,
2004-01-27, 03:21:01,VALID,915.538,VALID,0,VALID,90.9998,VALID,0,VALID,20.361,VALID,109,VALID,1.68661,
2004-01-27, 03:22:00,VALID,915.535,VALID,0,VALID,91.052,VALID,0.0339617,VALID,20.3675,VALID,91,VALID,1.19289,
2004-01-27, 03:23:00,VALID,915.533,VALID,0,VALID,91.1016,VALID,0,VALID,20.3705,VALID,113,VALID,1.41883,
2004-01-27, 03:24:00,VALID,915.523,VALID,0,VALID,91.0062,VALID,-0.0169808,VALID,20.3769,VALID,127,VALID,1.76215,
2004-01-27, 03:25:01,VALID,915.521,VALID,0,VALID,91.1321,VALID,0,VALID,20.3896,VALID,122,VALID,1.20087,
2004-01-27, 03:26:00,VALID,915.511,VALID,0,VALID,91.2008,VALID,-0.0169808,VALID,20.3772,VALID,119,VALID,1.37837,
2004-01-27, 03:27:01,VALID,915.503,VALID,0,VALID,91.3381,VALID,0.0169808,VALID,20.367,VALID,109,VALID,1.26124,
2004-01-27, 03:28:00,VALID,915.502,VALID,0,VALID,91.3127,VALID,0,VALID,20.3546,VALID,114,VALID,1.69709,
2004-01-27, 03:29:00,VALID,915.489,VALID,0,VALID,91.3813,VALID,-0.0169808,VALID,20.3414,VALID,105,VALID,1.36719,
2004-01-27, 03:30:00,VALID,915.506,VALID,0,VALID,91.4093,VALID,0,VALID,20.3347,VALID,106,VALID,1.47656,
2004-01-27, 03:31:01,VALID,915.519,VALID,0,VALID,91.539,VALID,0,VALID,20.3449,VALID,96,VALID,1.44495,
2004-01-27, 03:32:01,VALID,915.535,VALID,0,VALID,91.567,VALID,0.0169808,VALID,20.3258,VALID,90,VALID,1.10742,
2004-01-27, 03:33:00,VALID,915.521,VALID,0,VALID,91.5288,VALID,0,VALID,20.319,VALID,91,VALID,1.50558,
2004-01-27, 03:34:00,VALID,915.524,VALID,0,VALID,91.5314,VALID,0.0339617,VALID,20.3088,VALID,82,VALID,1.7926,